Location: Grange Rosano
(44.4500°N, 6.9667°E)
Time: 19:50:15
(UTC+00:00)

Cosmos 1980 - Pass Details

Date: 26 May 2022
Orbit: 840 x 846 km, 71.0° (Epoch: 01 July)

Event Time Altitude Azimuth Distance (km) Brightness Sun altitude
Exits shadow 00:20:14 55° 174° (S) 1,002 3.7 -23.4°
Maximum altitude 00:21:23 72° 112° (ESE) 884 3.7 -23.4°
Drops below altitude 10° 00:27:01 10° 29° (NNE) 2,464 7.2 -23.1°
Sets 00:29:29 0° 28° (NNE) 3,403 8.2 -23.0°
